FW8513 Weather Reports


time (UTC)temp
C
wind
direction
speed
KPH
gust
KPH
rain 1hr
cm
rain 24hr
cm
rain mn
cm
humidity
%
barometer
mb
20260906233041 15 43 12.9 20.9 0.00 3.86 3.43 75 1017.1
20260906231548 16 48 11.3 19.3 0.00 3.86 3.43 73 1017.2
20260906230043 16 24 14.5 22.5 0.00 3.86 3.43 72 1017.2
20260906224545 16 27 9.7 19.3 0.00 3.86 3.43 71 1017.2
20260906223049 16 17 12.9 20.9 0.00 3.86 3.43 71 1017.0
20260906221547 15 28 11.3 19.3 0.00 3.86 3.43 72 1017.6
20260906220041 15 33 8.0 16.1 0.00 3.86 3.43 73 1017.6
20260906214543 15 15 9.7 17.7 0.00 3.86 3.43 73 1017.5
20260906213046 15 44 9.7 17.7 0.00 3.86 3.43 71 1017.5
20260906211545 15 24 9.7 17.7 0.00 3.86 3.43 72 1017.3
20260906210045 15 25 11.3 19.3 0.00 3.86 3.43 71 1017.4
20260906204602 15 23 9.7 19.3 0.00 3.86 3.43 72 1017.5
20260906203046 14 23 11.3 17.7 0.00 3.86 3.43 74 1017.5
20260906201543 14 25 11.3 19.3 0.00 3.86 3.43 75 1017.6
20260906200049 14 41 11.3 19.3 0.00 3.86 3.43 75 1017.8
20260906194546 13 32 9.7 19.3 0.00 3.89 3.43 76 1017.7
20260906193043 13 47 11.3 17.7 0.00 3.89 3.43 76 1017.9
20260906191551 13 19 9.7 17.7 0.00 3.89 3.43 76 1018.1
20260906184546 13 28 9.7 19.3 0.00 3.89 3.43 76 1018.1
20260906183105 13 5 9.7 22.5 0.00 3.89 3.43 76 1018.3
20260906181544 13 40 11.3 25.7 0.00 3.89 3.43 75 1018.3
20260906180100 13 46 12.9 24.1 0.03 3.89 3.43 78 1018.2
20260906174550 12 58 12.9 24.1 0.03 3.89 3.43 82 1018.3
20260906173048 12 66 16.1 25.7 0.03 3.89 3.43 83 1018.3
20260906171544 12 63 14.5 24.1 0.03 3.89 3.43 86 1018.6
20260906170110 12 55 14.5 24.1 0.05 3.86 3.40 88 1018.6
20260906164552 12 63 12.9 25.7 0.13 3.86 3.40 89 1018.6
20260906163049 11 33 14.5 20.9 0.15 3.86 3.40 89 1018.7
20260906161544 11 30 8.0 14.5 0.15 3.86 3.40 89 1019.3
20260906160050 11 304 6.4 12.9 0.10 3.81 3.35 89 1020.5
20260906154547 11 70 6.4 12.9 0.03 3.76 3.28 89 1019.4
20260906153043 11 53 8.0 17.7 0.00 3.73 3.25 89 1019.3
20260906151607 11 45 9.7 14.5 0.00 3.73 3.25 89 1019.3
20260906150057 11 31 6.4 14.5 0.03 3.73 3.25 89 1019.7
20260906144549 11 24 4.8 12.9 0.08 3.73 3.25 89 1020.1
20260906143105 11 321 8.0 14.5 0.20 3.73 3.25 89 1020.3
20260906141543 11 321 8.0 14.5 0.30 3.73 3.25 89 1020.4
20260906140051 11 294 11.3 17.7 0.71 3.71 3.23 89 1020.9
20260906134553 11 265 14.5 19.3 0.79 3.71 3.15 89 1021.4
20260906133044 11 268 14.5 20.9 0.69 3.61 3.05 89 1021.0
20260906131549 11 301 12.9 22.5 0.58 3.51 2.95 89 1020.7
20260906130049 11 302 19.3 29.0 0.13 3.05 2.49 89 1021.0
20260906124548 11 21 6.4 14.5 0.03 2.95 2.36 89 1019.3
20260906123114 11 20 8.0 16.1 0.20 2.95 2.36 89 1019.6
20260906121553 11 11 9.7 20.9 0.23 2.95 2.36 89 1020.0
20260906120050 11 13 9.7 19.3 0.23 2.95 2.36 89 1020.5
20260906114547 11 14 12.9 20.9 0.20 2.95 2.34 89 1020.6
20260906113046 11 324 11.3 30.6 0.03 2.79 2.16 89 1022.0
20260906111545 11 296 29.0 53.1 0.30 2.24 1.60 89 1021.4
20260906110046 11 346 19.3 29.0 0.05 1.98 1.32 89 1019.5
20260906104548 11 331 16.1 24.1 0.05 1.98 1.32 89 1019.6
20260906103048 11 334 16.1 24.1 0.03 1.96 1.32 89 1020.1
20260906101545 11 340 17.7 27.4 0.00 1.93 1.30 89 1020.0
20260906100048 10 355 16.1 25.7 0.10 1.93 1.30 89 1020.0
20260906094549 10 347 14.5 22.5 0.15 1.93 1.30 89 1020.3
20260906093051 10 5 11.3 22.5 0.20 1.93 1.30 89 1019.9
20260906091602 10 13 14.5 20.9 0.28 1.91 1.27 88 1019.9
20260906090051 10 38 16.1 32.2 0.48 1.83 1.19 88 1020.2
20260906084544 10 26 20.9 30.6 0.53 1.78 1.14 88 1019.8
20260906083053 11 69 12.9 22.5 0.56 1.73 1.09 88 1020.3
20260906081546 11 36 16.1 24.1 0.53 1.63 0.99 88 1021.3
20260906080047 11 341 8.0 14.5 0.41 1.32 0.71 88 1022.0
20260906074550 11 53 8.0 16.1 0.43 1.24 0.61 88 1021.4
20260906073048 11 41 11.3 19.3 0.38 1.17 0.53 87 1021.5
20260906071544 11 31 9.7 17.7 0.33 1.09 0.46 87 1022.1
20260906070055 11 50 6.4 14.5 0.25 0.91 0.28 87 1022.0
20260906064549 11 46 9.7 20.9 0.23 0.81 0.18 87 1022.1
20260906063050 11 58 14.5 24.1 0.28 0.79 0.15 87 1022.1
20260906061544 11 38 14.5 24.1 0.36 0.74 0.10 86 1021.7
20260906060055 11 31 12.9 20.9 0.38 0.66 0.03 86 1022.5
20260906054549 11 349 9.7 17.7 0.33 0.58 0.58 85 1023.4
20260906053058 11 336 12.9 19.3 0.25 0.51 0.51 85 1023.2
20260906051556 11 337 9.7 14.5 0.13 0.38 0.38 84 1023.0
20260906050051 12 26 6.4 12.9 0.03 0.28 0.28 83 1022.7
20260906044549 12 20 6.4 16.1 0.00 0.30 0.25 83 1022.3
20260906043046 12 24 9.7 19.3 0.03 0.30 0.25 82 1021.9
20260906041558 12 19 11.3 20.9 0.05 0.30 0.25 81 1021.9
20260906040050 12 24 14.5 24.1 0.05 0.30 0.25 79 1021.5
20260906034543 12 22 14.5 22.5 0.05 0.30 0.25 78 1021.6
20260906033050 13 31 8.0 17.7 0.03 0.28 0.23 75 1022.0
20260906031550 13 11 11.3 16.1 0.00 0.25 0.20 71 1021.9
20260906030051 13 5 11.3 17.7 0.00 0.25 0.20 69 1021.6
20260906024546 14 33 9.7 17.7 0.00 0.25 0.20 68 1020.8
20260906023050 14 26 11.3 19.3 0.00 0.25 0.20 67 1020.6
20260906021558 14 40 9.7 19.3 0.00 0.25 0.20 66 1020.4
20260906020104 15 11 11.3 22.5 0.00 0.25 0.20 65 1020.5
20260906014543 15 17 11.3 17.7 0.00 0.25 0.20 64 1020.6
20260906013056 15 26 12.9 20.9 0.00 0.25 0.20 62 1020.5
20260906011559 16 339 12.9 22.5 0.00 0.25 0.20 61 1020.3
20260906010044 16 24 12.9 24.1 0.00 0.25 0.20 60 1020.3
20260906004558 17 36 14.5 24.1 0.00 0.25 0.20 58 1020.3
20260906003046 17 34 11.3 22.5 0.00 0.25 0.20 58 1020.2
20260906001546 17 54 9.7 17.7 0.00 0.25 0.20 58 1020.3
20260906000052 17 28 12.9 20.9 0.00 0.25 0.20 57 1020.3
20260905234550 17 22 11.3 17.7 0.00 0.25 0.20 59 1020.4